Location: Gallinara
(44.0333°N, 8.2333°E)
Time: 17:28:02
(UTC+00:00)

Cosmos 1697 Rocket - Pass Details

Date: 25 September 2020
Orbit: 832 x 844 km, 71.0° (Epoch: 29 October)

Event Time Altitude Azimuth Distance (km) Brightness Sun altitude
Exits shadow 02:41:14 21° 329° (NNW) 1,785 4.3 -27.9°
Drops below altitude 10° 02:44:26 10° 2° (N) 2,452 5.4 -27.4°
Sets 02:47:26 0° 17° (NNE) 3,391 6.5 -26.9°
